This is the latest recevied weather packets stored in our database for station/object K4GDX. If no packets are shown the sender has not sent any weather packets the latest 10 day(s).
| Time | Temp. | Humidity | Pressure | Rain* | Wind** | Luminosity | Snow |
|---|---|---|---|---|---|---|---|
| 1777416781 | 23.89° C | 81% | 1017.1 hPa | 0 mm | - | 86 W/m² | - |
| 1777416482 | 23.89° C | 81% | 1017.3 hPa | 0 mm | - | 86 W/m² | - |
| 1777416178 | 23.89° C | 81% | 1017.3 hPa | 0 mm | - | 197 W/m² | - |
| 1777415880 | 23.89° C | 81% | 1017.2 hPa | 0 mm | - | 204 W/m² | - |
| 1777415582 | 23.89° C | 80% | 1017.1 hPa | 0 mm | - | 204 W/m² | - |
| 1777415276 | 23.89° C | 80% | 1017.3 hPa | 0 mm | - | 218 W/m² | - |
| 1777414978 | 23.89° C | 80% | 1017.4 hPa | 0 mm | - | 258 W/m² | - |
| 1777414676 | 23.89° C | 80% | 1017.4 hPa | 0 mm | - | 290 W/m² | - |
| 1777414374 | 23.89° C | 80% | 1017.7 hPa | 0 mm | - | 341 W/m² | - |
| 1777414076 | 23.89° C | 80% | 1018.1 hPa | 0 mm | - | 158 W/m² | - |
| 1777413776 | 24.44° C | 79% | 1018.3 hPa | 0 mm | - | 155 W/m² | - |
| 1777413477 | 23.89° C | 79% | 1018.5 hPa | 0 mm | - | 469 W/m² | - |
| 1777413175 | 23.89° C | 79% | 1018.5 hPa | 0 mm | - | 334 W/m² | - |
| 1777412875 | 23.89° C | 80% | 1018.5 hPa | 0 mm | - | 362 W/m² | - |
| 1777412574 | 23.89° C | 79% | 1018.5 hPa | 0 mm | - | 352 W/m² | - |
| 1777412275 | 24.44° C | 78% | 1018.5 hPa | 0 mm | - | 183 W/m² | - |
| 1777411974 | 24.44° C | 78% | 1018.7 hPa | 0 mm | - | 262 W/m² | - |
| 1777411675 | 24.44° C | 78% | 1018.6 hPa | 0 mm | - | 357 W/m² | - |
| 1777411374 | 24.44° C | 78% | 1018.6 hPa | 0 mm | - | 357 W/m² | - |
| 1777411070 | 25° C | 77% | 1018.7 hPa | 0 mm | - | 357 W/m² | - |
| 1777410760 | 25.56° C | 76% | 1018.7 hPa | 0 mm | - | 473 W/m² | - |
| 1777410460 | 25.56° C | 75% | 1018.8 hPa | 0 mm | - | 666 W/m² | - |
| 1777410167 | 25.56° C | 76% | 1018.9 hPa | 0 mm | - | 670 W/m² | - |
| 1777409865 | 25.56° C | 75% | 1018.9 hPa | 0 mm | - | 343 W/m² | - |
| 1777409564 | 25.56° C | 76% | 1019 hPa | 0 mm | - | 640 W/m² | - |
* Rain latest hour (hover to see other rain measurements)
** Current wind speed in m/s (hover to see current wind gust speed)